Mumbai, India

2:53 PM IST on May 24, 2018 (GMT +0530)
Chhatrapati Shivaji International

Weather History for VABB - October, 2013

Change the Weather History Date:

Wednesday, October 30, 2013

  Actual Average Record
Temperature  
Mean Temperature 82 °F -  
Max Temperature 94 °F 90 °F 98 °F (2002)
Min Temperature 69 °F 72 °F 64 °F (2016)
Cooling Degree Days 16    
Growing Degree Days 32 (Base 50)    
Moisture  
Dew Point 68 °F    
Average Humidity 55    
Maximum Humidity 82    
Minimum Humidity 36    
Precipitation  
Precipitation 0.00 in - - ()
Sea Level Pressure  
Sea Level Pressure 29.89 in    
Wind  
Wind Speed 4 mph ()    
Max Wind Speed 10 mph    
Max Gust Speed -    
Visibility 1.7 miles    
Events      
Averages and records for this station are not official NWS values.
T = Trace of Precipitation, MM = Missing Value Source: Averaged Metar Reports

Daily Weather History Graph

Daily Weather History Graph

Search for Another Location

Airport or City:

Astronomy

Oct. 30, 2013 Rise Set
Actual Time 6:38 AM IST 6:06 PM IST
Civil Twilight 6:15 AM IST 6:28 PM IST
Nautical Twilight 5:49 AM IST 6:54 PM IST
Astronomical Twilight 5:23 AM IST 7:20 PM IST
Moon 2:35 AM IST (10/30) 3:06 PM IST (10/30)
Length of Visible Light 12h 13m
Length of Day
11h 28m
Waning Crescent, 20% of the Moon is Illuminated
Oct 30
Waning Crescent
Nov 3
New
Nov 10
First Quarter
Nov 17
Full
Nov 26
Last Quarter

Hourly Weather History & Observations

Time (IST) Temp. Heat Index Dew Point Humidity Pressure Visibility Wind Dir Wind Speed Gust Speed Precip Events Conditions
12:10 AM 82.4 °F 84.6 °F 66.2 °F 58% 29.89 in 2.2 mi Calm Calm - N/A   Smoke
1:10 AM 80.6 °F 83.2 °F 68.0 °F 65% 29.89 in 1.9 mi ESE 8.1 mph - N/A   Smoke
1:40 AM 80.6 °F 82.7 °F 66.2 °F 61% 29.89 in 1.9 mi NE 3.5 mph - N/A   Haze
2:10 AM 80.6 °F 82.3 °F 64.4 °F 58% 29.89 in 2.2 mi SE 4.6 mph - N/A   Haze
2:30 AM 74 °F - 67 °F 74% 29.88 in 1 mi Calm Calm - -   Haze
2:40 AM 80.6 °F 82.3 °F 64.4 °F 58% 29.86 in 2.2 mi NE 4.6 mph - N/A   Haze
3:10 AM 80.6 °F 81.8 °F 62.6 °F 54% 29.86 in 2.2 mi NE 3.5 mph - N/A   Smoke
3:40 AM 80.6 °F 81.1 °F 59.0 °F 48% 29.86 in 2.2 mi Calm Calm - N/A   Smoke
4:10 AM 80.6 °F 81.5 °F 60.8 °F 51% 29.86 in 2.2 mi NNE 3.5 mph - N/A   Smoke
4:40 AM 80.6 °F 81.1 °F 59.0 °F 48% 29.86 in 2.2 mi ESE 5.8 mph - N/A   Smoke
5:10 AM 80.6 °F 81.5 °F 60.8 °F 51% 29.86 in 2.2 mi ENE 3.5 mph - N/A   Smoke
5:30 AM 71 °F - 67 °F 82% 29.88 in 1 mi Calm Calm - -   Haze
5:40 AM 80.6 °F 81.1 °F 59.0 °F 48% 29.89 in 2.2 mi NE 3.5 mph - N/A   Smoke
6:10 AM 80.6 °F 81.5 °F 60.8 °F 51% 29.89 in 2.2 mi NE 3.5 mph - N/A   Smoke
7:10 AM 80.6 °F 81.5 °F 60.8 °F 51% 29.92 in 1.6 mi North 3.5 mph - N/A   Smoke
8:10 AM 80.6 °F 81.8 °F 62.6 °F 54% 29.95 in 1.1 mi ESE 5.8 mph - N/A   Haze
8:30 AM 77 °F - 68 °F 66% 29.94 in 1 mi Calm Calm - -   Haze
8:40 AM 82.4 °F 83.4 °F 62.6 °F 51% 29.95 in 1.1 mi ENE 4.6 mph - N/A   Haze
9:10 AM 84.2 °F 85.6 °F 64.4 °F 51% 29.98 in 1.2 mi NE 8.1 mph - N/A   Smoke
9:40 AM 84.2 °F 86.6 °F 66.2 °F 55% 29.98 in 1.3 mi NE 5.8 mph - N/A   Smoke
10:10 AM 87.8 °F 91.4 °F 68.0 °F 52% 29.98 in 1.3 mi ENE 9.2 mph - N/A   Smoke
10:40 AM 89.6 °F 93.4 °F 68.0 °F 49% 29.98 in 1.4 mi NE 6.9 mph - N/A   Smoke
11:10 AM 89.6 °F 92.2 °F 66.2 °F 46% 29.95 in 1.7 mi North 4.6 mph - N/A   Smoke
11:30 AM 90 °F - 69 °F 40% 29.94 in 1 mi Calm Calm - -   Smoke
11:40 AM 91.4 °F 94.0 °F 66.2 °F 43% 29.95 in 1.7 mi North 6.9 mph - N/A   Smoke
12:10 PM 93.2 °F 96.2 °F 66.2 °F 41% 29.92 in 1.6 mi NNW 3.5 mph - N/A   Smoke
12:40 PM 95.0 °F 98.5 °F 66.2 °F 39% 29.89 in 1.6 mi East 5.8 mph - N/A   Smoke
1:10 PM 93.2 °F 100.5 °F 71.6 °F 49% 29.89 in 1.7 mi WSW 9.2 mph - N/A   Smoke
1:40 PM 93.2 °F 97.7 °F 68.0 °F 44% 29.86 in 1.7 mi WSW 9.2 mph - N/A   Smoke
2:30 PM 93 °F - 69 °F 36% 29.85 in 1 mi NW 4.6 mph - -   Smoke
2:40 PM 93.2 °F 97.7 °F 68.0 °F 44% 29.83 in 2.2 mi WNW 8.1 mph - N/A   Smoke
3:10 PM 93.2 °F 98.8 °F 69.8 °F 46% 29.83 in 2.2 mi WNW 8.1 mph - N/A   Smoke
3:40 PM 93.2 °F 98.8 °F 69.8 °F 46% 29.83 in 2.2 mi WNW 10.4 mph - N/A   Smoke
4:10 PM 91.4 °F 98.4 °F 71.6 °F 52% 29.83 in 2.2 mi NNW 10.4 mph - N/A   Smoke
4:40 PM 91.4 °F 98.4 °F 71.6 °F 52% 29.83 in 2.2 mi NW 6.9 mph - N/A   Smoke
5:10 PM 91.4 °F 96.8 °F 69.8 °F 49% 29.83 in 2.2 mi NNW 8.1 mph - N/A   Smoke
5:30 PM 89 °F - 71 °F 47% 29.84 in 1 mi NW 6.9 mph - -   Smoke
5:40 PM 89.6 °F 96.2 °F 71.6 °F 55% 29.83 in 2.2 mi NW 5.8 mph - N/A   Smoke
6:40 PM 87.8 °F 93.8 °F 71.6 °F 58% 29.86 in 1.9 mi NNW 8.1 mph - N/A   Smoke
7:10 PM 87.8 °F 93.8 °F 71.6 °F 58% 29.86 in 1.9 mi ESE 5.8 mph - N/A   Smoke
7:40 PM 86.0 °F 93.4 °F 73.4 °F 66% 29.89 in 1.9 mi East 6.9 mph - N/A   Smoke
8:10 PM 86.0 °F 93.4 °F 73.4 °F 66% 29.89 in 1.6 mi NE 8.1 mph - N/A   Smoke
8:30 PM 83 °F - 74 °F 69% 29.89 in 1 mi Calm Calm - -   Haze
8:40 PM 86.0 °F 95.1 °F 75.2 °F 70% 29.89 in 1.6 mi NNE 6.9 mph - N/A   Smoke
9:10 PM 84.2 °F 90.9 °F 73.4 °F 70% 29.89 in 1.6 mi SW 9.2 mph - N/A   Haze
9:40 PM 84.2 °F 89.6 °F 71.6 °F 66% 29.89 in 1.6 mi East 8.1 mph - N/A   Haze
10:10 PM 84.2 °F 88.4 °F 69.8 °F 62% 29.92 in 1.6 mi North 6.9 mph - N/A   Haze
10:40 PM 84.2 °F 88.4 °F 69.8 °F 62% 29.92 in 1.6 mi Calm Calm - N/A   Haze
11:10 PM 84.2 °F 89.6 °F 71.6 °F 66% 29.89 in 1.6 mi Calm Calm - N/A   Haze
11:30 PM 76 °F - 71 °F 82% 29.90 in 1 mi Calm Calm - -   Haze
11:40 PM 82.4 °F 86.3 °F 69.8 °F 66% 29.89 in 1.6 mi SE 3.5 mph - N/A   Haze